Time,TemperatureF,DewpointF,PressureIn,WindDirection,WindDirectionDegrees,WindSpeedMPH,WindSpeedGustMPH,Humidity,HourlyPrecipIn,Conditions,Clouds,dailyrainin,SolarRadiationWatts/m^2,SoftwareType,DateUTC
2013-01-06 00:16:00,24.2,20.0,30.18,NNW,333,0.0,-999.0,85,-99.99,,,0.00,0,weatherlink.com 1.10,2013-01-06 05:16:00,
2013-01-06 00:31:00,24.3,21.0,30.16,NNW,333,0.0,-999.0,86,-99.99,,,0.00,0,weatherlink.com 1.10,2013-01-06 05:31:00,
2013-01-06 00:46:00,24.4,21.0,30.15,NNW,333,0.0,-999.0,86,-99.99,,,0.00,0,weatherlink.com 1.10,2013-01-06 05:46:00,
2013-01-06 01:01:00,24.7,21.0,30.15,NNW,333,0.0,-999.0,86,-99.99,,,0.00,0,weatherlink.com 1.10,2013-01-06 06:01:00,
2013-01-06 01:16:00,25.0,22.0,30.15,NNW,333,0.0,-999.0,87,-99.99,,,0.00,0,weatherlink.com 1.10,2013-01-06 06:16:00,
2013-01-06 01:31:00,25.3,22.0,30.16,NNW,333,0.0,-999.0,87,-99.99,,,0.00,0,weatherlink.com 1.10,2013-01-06 06:31:00,
2013-01-06 02:01:00,25.8,22.0,30.19,NNW,333,0.0,-999.0,86,-99.99,,,0.00,0,weatherlink.com 1.10,2013-01-06 07:01:00,
2013-01-06 02:16:00,26.2,23.0,30.20,NNW,333,0.0,-999.0,86,-99.99,,,0.00,0,weatherlink.com 1.10,2013-01-06 07:16:00,
2013-01-06 02:32:00,26.7,23.0,30.19,NNW,333,0.0,-999.0,84,-99.99,,,0.00,0,weatherlink.com 1.10,2013-01-06 07:32:00,
2013-01-06 02:47:00,27.2,23.0,30.17,NNW,333,0.0,-999.0,84,-99.99,,,0.00,0,weatherlink.com 1.10,2013-01-06 07:47:00,
2013-01-06 03:02:00,27.5,25.0,30.16,NNW,333,0.0,-999.0,89,-99.99,,,0.00,0,weatherlink.com 1.10,2013-01-06 08:02:00,
2013-01-06 03:17:00,27.8,23.0,30.15,NNW,333,0.0,-999.0,82,-99.99,,,0.00,0,weatherlink.com 1.10,2013-01-06 08:17:00,
2013-01-06 03:32:00,28.0,23.0,30.15,NNW,333,0.0,-999.0,81,-99.99,,,0.00,0,weatherlink.com 1.10,2013-01-06 08:32:00,
2013-01-06 03:47:00,28.2,23.0,30.14,NNW,333,0.0,-999.0,81,-99.99,,,0.00,0,weatherlink.com 1.10,2013-01-06 08:47:00,
2013-01-06 04:02:00,28.5,23.0,30.14,NNW,333,0.0,-999.0,80,-99.99,,,0.00,0,weatherlink.com 1.10,2013-01-06 09:02:00,
2013-01-06 04:17:00,28.6,23.0,30.11,NNW,333,0.0,-999.0,79,-99.99,,,0.00,0,weatherlink.com 1.10,2013-01-06 09:17:00,
2013-01-06 04:32:00,28.7,23.0,30.11,NNW,332,0.0,-999.0,79,-99.99,,,0.00,0,weatherlink.com 1.10,2013-01-06 09:32:00,
2013-01-06 04:47:00,28.9,23.0,30.10,NNW,332,0.0,-999.0,79,-99.99,,,0.00,0,weatherlink.com 1.10,2013-01-06 09:47:00,
2013-01-06 05:02:00,29.0,23.0,30.10,NNW,332,0.0,-999.0,79,-99.99,,,0.00,0,weatherlink.com 1.10,2013-01-06 10:02:00,
2013-01-06 05:17:00,29.2,23.0,30.10,NNW,332,0.0,-999.0,79,-99.99,,,0.00,0,weatherlink.com 1.10,2013-01-06 10:17:00,
2013-01-06 05:32:00,29.3,23.0,30.10,NNW,332,0.0,-999.0,78,-99.99,,,0.00,0,weatherlink.com 1.10,2013-01-06 10:32:00,
2013-01-06 05:47:00,29.6,24.0,30.09,WNW,290,0.0,-999.0,78,-99.99,,,0.00,0,weatherlink.com 1.10,2013-01-06 10:47:00,
2013-01-06 06:02:00,29.7,25.0,30.09,WNW,284,0.0,-999.0,81,-99.99,,,0.00,0,weatherlink.com 1.10,2013-01-06 11:02:00,
2013-01-06 06:17:00,29.6,25.0,30.08,SSW,210,0.0,-999.0,84,-99.99,,,0.00,0,weatherlink.com 1.10,2013-01-06 11:17:00,
2013-01-06 06:32:00,29.6,26.0,30.08,SSW,210,0.0,-999.0,85,-99.99,,,0.00,0,weatherlink.com 1.10,2013-01-06 11:32:00,
2013-01-06 06:47:00,29.7,26.0,30.08,SSW,210,0.0,-999.0,87,-99.99,,,0.00,0,weatherlink.com 1.10,2013-01-06 11:47:00,
2013-01-06 07:02:00,29.7,27.0,30.07,SSW,210,0.0,-999.0,88,-99.99,,,0.00,0,weatherlink.com 1.10,2013-01-06 12:02:00,
2013-01-06 07:17:00,29.8,27.0,30.07,SSW,210,0.0,-999.0,89,-99.99,,,0.00,0,weatherlink.com 1.10,2013-01-06 12:17:00,
2013-01-06 07:32:00,29.9,27.0,30.07,SSW,210,0.0,-999.0,89,-99.99,,,0.00,0,weatherlink.com 1.10,2013-01-06 12:32:00,
2013-01-06 07:47:00,30.1,28.0,30.07,South,171,0.0,-999.0,90,-99.99,,,0.00,7,weatherlink.com 1.10,2013-01-06 12:47:00,
2013-01-06 08:02:00,30.7,28.0,30.07,SSE,162,0.0,-999.0,91,-99.99,,,0.00,12,weatherlink.com 1.10,2013-01-06 13:02:00,
2013-01-06 08:17:00,31.2,29.0,30.07,SSE,161,0.0,-999.0,91,-99.99,,,0.00,14,weatherlink.com 1.10,2013-01-06 13:17:00,
2013-01-06 08:32:00,31.6,30.0,30.06,SSE,153,0.0,-999.0,92,-99.99,,,0.00,32,weatherlink.com 1.10,2013-01-06 13:32:00,
2013-01-06 08:47:00,32.1,30.0,30.06,NW,325,0.0,-999.0,92,-99.99,,,0.00,33,weatherlink.com 1.10,2013-01-06 13:47:00,
2013-01-06 09:02:00,32.6,31.0,30.06,West,259,0.0,-999.0,92,-99.99,,,0.00,44,weatherlink.com 1.10,2013-01-06 14:02:00,
2013-01-06 09:17:00,33.1,31.0,30.06,SSW,195,2.0,-999.0,93,-99.99,,,0.00,54,weatherlink.com 1.10,2013-01-06 14:17:00,
2013-01-06 09:32:00,33.5,32.0,30.05,WSW,242,0.0,-999.0,93,-99.99,,,0.00,178,weatherlink.com 1.10,2013-01-06 14:32:00,
2013-01-06 09:47:00,34.1,32.0,30.05,ENE,71,0.0,-999.0,93,-99.99,,,0.00,260,weatherlink.com 1.10,2013-01-06 14:47:00,
2013-01-06 10:02:00,35.2,33.0,30.04,WSW,241,0.0,-999.0,91,-99.99,,,0.00,274,weatherlink.com 1.10,2013-01-06 15:02:00,
2013-01-06 10:17:00,36.1,33.0,30.03,WSW,252,0.0,-999.0,89,-99.99,,,0.01,292,weatherlink.com 1.10,2013-01-06 15:17:00,
2013-01-06 10:33:00,36.8,33.0,30.02,SW,234,2.0,-999.0,86,-99.99,,,0.01,308,weatherlink.com 1.10,2013-01-06 15:33:00,
2013-01-06 10:48:00,37.5,33.0,30.01,WSW,246,2.0,-999.0,83,-99.99,,,0.01,318,weatherlink.com 1.10,2013-01-06 15:48:00,
2013-01-06 11:03:00,38.2,33.0,30.00,WNW,282,0.0,-999.0,80,-99.99,,,0.01,334,weatherlink.com 1.10,2013-01-06 16:03:00,
2013-01-06 11:18:00,38.6,32.0,29.98,SW,229,3.0,-999.0,78,-99.99,,,0.02,325,weatherlink.com 1.10,2013-01-06 16:18:00,
2013-01-06 11:33:00,39.1,32.0,29.98,NW,323,4.0,-999.0,76,-99.99,,,0.03,362,weatherlink.com 1.10,2013-01-06 16:33:00,
2013-01-06 11:48:00,38.8,32.0,29.96,South,178,0.0,-999.0,76,-99.99,,,0.03,353,weatherlink.com 1.10,2013-01-06 16:48:00,
2013-01-06 12:03:00,39.1,32.0,29.95,WSW,248,4.0,-999.0,76,-99.99,,,0.04,348,weatherlink.com 1.10,2013-01-06 17:03:00,
2013-01-06 12:18:00,39.6,32.0,29.94,WSW,250,2.0,-999.0,75,-99.99,,,0.04,378,weatherlink.com 1.10,2013-01-06 17:18:00,
2013-01-06 12:33:00,40.2,33.0,29.94,ENE,65,0.0,-999.0,74,-99.99,,,0.04,367,weatherlink.com 1.10,2013-01-06 17:33:00,
2013-01-06 12:48:00,40.5,32.0,29.93,WSW,247,0.0,-999.0,73,-99.99,,,0.04,353,weatherlink.com 1.10,2013-01-06 17:48:00,
2013-01-06 13:03:00,40.8,32.0,29.92,WSW,249,6.0,-999.0,72,-99.99,,,0.05,316,weatherlink.com 1.10,2013-01-06 18:03:00,
2013-01-06 13:18:00,41.2,32.0,29.93,WSW,248,0.0,-999.0,71,-99.99,,,0.05,218,weatherlink.com 1.10,2013-01-06 18:18:00,
2013-01-06 13:33:00,41.3,33.0,29.92,WNW,297,0.0,-999.0,71,-99.99,,,0.05,165,weatherlink.com 1.10,2013-01-06 18:33:00,
2013-01-06 13:48:00,41.9,33.0,29.92,SSE,147,0.0,-999.0,70,-99.99,,,0.05,134,weatherlink.com 1.10,2013-01-06 18:48:00,
2013-01-06 14:03:00,42.0,32.0,29.92,WSW,258,0.0,-999.0,69,-99.99,,,0.06,134,weatherlink.com 1.10,2013-01-06 19:03:00,
2013-01-06 14:18:00,42.2,33.0,29.93,SSW,208,2.0,-999.0,69,-99.99,,,0.06,137,weatherlink.com 1.10,2013-01-06 19:18:00,
2013-01-06 14:33:00,42.2,33.0,29.92,West,273,4.0,-999.0,69,-99.99,,,0.06,88,weatherlink.com 1.10,2013-01-06 19:33:00,
2013-01-06 14:48:00,42.3,32.0,29.92,West,280,2.0,-999.0,68,-99.99,,,0.06,56,weatherlink.com 1.10,2013-01-06 19:48:00,
2013-01-06 15:18:00,42.3,32.0,29.91,SSW,212,0.0,-999.0,67,-99.99,,,0.06,35,weatherlink.com 1.10,2013-01-06 20:18:00,
2013-01-06 15:33:00,42.0,32.0,29.91,WSW,240,0.0,-999.0,67,-99.99,,,0.06,32,weatherlink.com 1.10,2013-01-06 20:33:00,
2013-01-06 15:48:00,41.6,32.0,29.91,WSW,242,0.0,-999.0,69,-99.99,,,0.07,23,weatherlink.com 1.10,2013-01-06 20:48:00,
2013-01-06 16:03:00,41.3,32.0,29.92,WSW,242,0.0,-999.0,69,-99.99,,,0.07,16,weatherlink.com 1.10,2013-01-06 21:03:00,
2013-01-06 16:18:00,40.8,31.0,29.92,WSW,242,0.0,-999.0,69,-99.99,,,0.07,7,weatherlink.com 1.10,2013-01-06 21:18:00,
2013-01-06 16:33:00,39.7,31.0,29.92,WSW,242,0.0,-999.0,70,-99.99,,,0.07,0,weatherlink.com 1.10,2013-01-06 21:33:00,
2013-01-06 16:48:00,38.5,30.0,29.93,WSW,242,0.0,-999.0,72,-99.99,,,0.07,0,weatherlink.com 1.10,2013-01-06 21:48:00,
2013-01-06 17:03:00,37.7,30.0,29.93,WSW,242,0.0,-999.0,73,-99.99,,,0.07,0,weatherlink.com 1.10,2013-01-06 22:03:00,
2013-01-06 17:18:00,36.5,29.0,29.93,WSW,242,0.0,-999.0,74,-99.99,,,0.07,0,weatherlink.com 1.10,2013-01-06 22:18:00,
2013-01-06 17:33:00,35.3,28.0,29.93,WSW,242,0.0,-999.0,75,-99.99,,,0.07,0,weatherlink.com 1.10,2013-01-06 22:33:00,
2013-01-06 17:48:00,34.2,27.0,29.94,WSW,242,0.0,-999.0,76,-99.99,,,0.07,0,weatherlink.com 1.10,2013-01-06 22:48:00,
2013-01-06 18:03:00,33.0,27.0,29.94,WSW,242,0.0,-999.0,78,-99.99,,,0.07,0,weatherlink.com 1.10,2013-01-06 23:03:00,
2013-01-06 18:18:00,32.1,27.0,29.94,WSW,242,0.0,-999.0,81,-99.99,,,0.07,0,weatherlink.com 1.10,2013-01-06 23:18:00,
2013-01-06 18:33:00,31.5,27.0,29.94,WSW,242,0.0,-999.0,82,-99.99,,,0.07,0,weatherlink.com 1.10,2013-01-06 23:33:00,
2013-01-06 18:48:00,30.9,26.0,29.94,WSW,242,0.0,-999.0,83,-99.99,,,0.07,0,weatherlink.com 1.10,2013-01-06 23:48:00,
2013-01-06 19:03:00,30.4,26.0,29.95,WSW,242,0.0,-999.0,83,-99.99,,,0.07,0,weatherlink.com 1.10,2013-01-07 00:03:00,
2013-01-06 19:18:00,29.9,26.0,29.94,WSW,242,0.0,-999.0,84,-99.99,,,0.07,0,weatherlink.com 1.10,2013-01-07 00:18:00,
2013-01-06 19:33:00,29.5,26.0,29.95,WSW,242,0.0,-999.0,85,-99.99,,,0.07,0,weatherlink.com 1.10,2013-01-07 00:33:00,
2013-01-06 19:48:00,29.2,25.0,29.95,WSW,242,0.0,-999.0,85,-99.99,,,0.07,0,weatherlink.com 1.10,2013-01-07 00:48:00,
2013-01-06 20:03:00,28.9,25.0,29.95,WSW,242,0.0,-999.0,86,-99.99,,,0.07,0,weatherlink.com 1.10,2013-01-07 01:03:00,
2013-01-06 20:18:00,28.8,26.0,29.95,WSW,242,0.0,-999.0,88,-99.99,,,0.07,0,weatherlink.com 1.10,2013-01-07 01:18:00,
2013-01-06 20:33:00,29.1,26.0,29.94,WSW,242,0.0,-999.0,89,-99.99,,,0.07,0,weatherlink.com 1.10,2013-01-07 01:33:00,
2013-01-06 20:48:00,29.4,27.0,29.94,WSW,242,0.0,-999.0,90,-99.99,,,0.07,0,weatherlink.com 1.10,2013-01-07 01:48:00,
2013-01-06 21:03:00,29.7,27.0,29.94,WSW,242,0.0,-999.0,90,-99.99,,,0.07,0,weatherlink.com 1.10,2013-01-07 02:03:00,
2013-01-06 21:18:00,29.9,28.0,29.95,WSW,242,0.0,-999.0,91,-99.99,,,0.07,0,weatherlink.com 1.10,2013-01-07 02:18:00,
2013-01-06 21:33:00,30.4,28.0,29.94,WSW,242,0.0,-999.0,91,-99.99,,,0.07,0,weatherlink.com 1.10,2013-01-07 02:33:00,
2013-01-06 21:48:00,30.6,28.0,29.94,WSW,242,0.0,-999.0,91,-99.99,,,0.07,0,weatherlink.com 1.10,2013-01-07 02:48:00,
2013-01-06 22:03:00,30.8,29.0,29.95,WSW,242,0.0,-999.0,91,-99.99,,,0.07,0,weatherlink.com 1.10,2013-01-07 03:03:00,
2013-01-06 22:18:00,31.1,29.0,29.95,South,182,0.0,-999.0,91,-99.99,,,0.00,0,weatherlink.com 1.10,2013-01-07 03:18:00,
2013-01-06 22:33:00,31.5,29.0,29.95,South,182,0.0,-999.0,91,-99.99,,,0.00,0,weatherlink.com 1.10,2013-01-07 03:33:00,
2013-01-06 22:48:00,31.7,29.0,29.95,South,182,0.0,-999.0,91,-99.99,,,0.00,0,weatherlink.com 1.10,2013-01-07 03:48:00,
2013-01-06 23:04:00,32.0,30.0,29.95,South,183,0.0,-999.0,91,-99.99,,,0.00,0,weatherlink.com 1.10,2013-01-07 04:04:00,
2013-01-06 23:19:00,32.0,30.0,29.95,South,187,0.0,-999.0,91,-99.99,,,0.00,0,weatherlink.com 1.10,2013-01-07 04:19:00,
2013-01-06 23:34:00,32.0,30.0,29.94,South,187,0.0,-999.0,91,-99.99,,,0.00,0,weatherlink.com 1.10,2013-01-07 04:34:00,
2013-01-06 23:49:00,32.0,30.0,29.94,South,187,0.0,-999.0,91,-99.99,,,0.00,0,weatherlink.com 1.10,2013-01-07 04:49:00,